Cuero, Texas, United States (77954)
Lat: 29.09N, Lon: 97.29W
Wx Zone: TXZ224
Local Info
Past Weather Observations for Today

NOTE: This archive is for the closest National Weather Service station to Cuero. Information may differ from the station used for current weather conditions.

Click here for Long-term Archive

Time Weather Temperature Dewpoint Humidity Pressure Winds Precip Visibility
13:51
Clear
91°F / 33°C 73°F / 23°C 56% 30.01 in
(1016 mb)
Calm - 10SM
13:23
Partly Cloudy
88°F / 31°C 75°F / 24°C 66% 30.01 in
(1016 mb)
SE 6.9 mph
(SE 11 kph)
- 10SM
13:08
Partly Cloudy
Thunder Storms
86°F / 30°C 73°F / 23°C 66% 30.01 in
(1016 mb)
SE 11.5 mph
(SE 19 kph)
- 10SM
13:00
Mostly Cloudy
86°F / 30°C 73°F / 23°C 66% 30.01 in
(1016 mb)
SE 17.3 mph
(SE 28 kph)
- 10SM
12:51
Partly Cloudy
Thunder Storms
88°F / 31°C 73°F / 23°C 62% 30.04 in
(1017 mb)
SE 16.1 mph
(SE 26 kph)
- 10SM
11:51
Partly Cloudy
Thunder Storms
91°F / 33°C 73°F / 23°C 56% 30.01 in
(1016 mb)
N 8.1 mph
(N 13 kph)
- 10SM
??
Partly Cloudy
90°F / 32°C 75°F / 24°C 63% 30.04 in
(1017 mb)
NNW 9.2 mph
(NNW 15 kph)
- 10SM
09:51
Mostly Cloudy
88°F / 31°C 75°F / 24°C 66% 30.04 in
(1017 mb)
Variable 4.6 mph
(Variable 7 kph)
- 10SM
09:44
Mostly Cloudy
88°F / 31°C 75°F / 24°C 66% 30.06 in
(1018 mb)
NW 5.8 mph
(NW 9 kph)
- 10SM
08:51
Partly Cloudy
84°F / 29°C 77°F / 25°C 79% 30.04 in
(1017 mb)
NW 6.9 mph
(NW 11 kph)
- 10SM
08:27
Mostly Cloudy
84°F / 29°C 77°F / 25°C 79% 30.04 in
(1017 mb)
W 8.1 mph
(W 13 kph)
- 10SM
07:51
Partly Cloudy
Hazy
82°F / 28°C 79°F / 26°C 89% 30.04 in
(1017 mb)
Calm 0.00 in
(0.00 mm)
6SM
06:51
Mostly Cloudy
Fog And Mist
81°F / 27°C 36°F / 2 1000 5°C 89% 30.04 in
(1017 mb)
Calm - 4SM
05:51
Partly Cloudy
Fog And Mist
79°F / 26°C 75°F / 24°C 89% 30.01 in
(1016 mb)
Calm - 4SM
04:51
Clear
Fog And Mist
79°F / 26°C 75°F / 24°C 89% 29.98 in
(1015 mb)
Calm - 6SM
04:21
Partly Cloudy
79°F / 26°C 75°F / 24°C 89% 29.98 in
(1015 mb)
SW 5.8 mph
(SW 9 kph)
- 7SM
04:08
Mostly Cloudy
Fog And Mist
79°F / 26°C 75°F / 24°C 89% 29.98 in
(1015 mb)
SW 3.5 mph
(SW 6 kph)
- 6SM
03:51
Partly Cloudy
79°F / 26°C 75°F / 24°C 89% 29.98 in
(1015 mb)
SW 3.5 mph
(SW 6 kph)
- 7SM
02:51
Clear
81°F / 27°C 75°F / 24°C 84% 29.98 in
(1015 mb)
SW 4.6 mph
(SW 7 kph)
- 7SM
01:51
Clear
79°F / 26°C 75°F / 24°C 89% 30.01 in
(1016 mb)
SW 5.8 mph
(SW 9 kph)
- 8SM
00:51
Clear
81°F / 27°C 75°F / 24°C 84% 30.01 in
(1016 mb)
S 6.9 mph
(S 11 kph)
- 9SM
Time Weather Temperature Dewpoint Humidity Pressure Winds Precip Visibility


Weather for websites

WeatherForYou.com, LLC is not responsible for any damages or problems caused by this service. Current weather conditions are obtained from the closest station including government and personal stations which may have varying degrees of accuracy. Weather forecasts are derived from the NOAA NDFD. Like all things, this site belongs to Jesus Christ... He just trusts me to maintain it. If you have any questions or comments email webmaster@weatherforyou.com

Copyright © 2014, WeatherForYou.com LLC. All rights reserved.